Wind_Speed
28 28 27 26 26 26 26 25 23 22 21 20 19 17 16 16 15 14 13 12 12 11 11 10 9 8 8 8 8 8 9 10 11 13 14 14 14 15 17 18 20 21 22 24
30 30 30 29 28 27 27 27 27 25 23 22 20 20 18 17 16 16 15 14 13 13 13 12 12 11 10 10 11 11 11 12 13 14 14 15 16 17 18 19 20 22 23 24
31 32 32 32 29 29 28 28 28 28 26 24 23 23 21 20 19 19 17 16 16 15 15 15 14 13 13 13 13 12 13 13 14 15 16 17 18 19 20 20 21 23 23 25
32 33 34 30 30 30 30 29 28 28 28 27 26 25 24 23 23 22 20 19 18 18 17 16 15 15 15 15 15 15 15 16 16 17 18 20 20 21 23 23 24 25 26 27
31 32 31 30 30 29 29 29 29 29 29 28 28 27 26 25 24 24 23 22 21 20 20 19 19 18 18 18 19 18 18 19 19 19 20 21 21 23 24 25 26 28 28 29
30 30 30 29 28 27 28 29 28 28 29 28 28 28 27 26 25 25 24 23 23 23 22 22 21 21 21 20 20 21 21 21 22 22 22 23 23 25 26 27 29 31 31 32
28 29 29 28 26 26 27 28 27 28 29 29 30 30 28 27 26 26 25 25 24 24 24 24 24 23 22 22 22 23 23 24 24 25 25 26 26 28 29 30 31 32 33 33
27 27 27 25 25 26 26 25 25 27 28 29 29 29 29 28 28 27 26 25 25 25 25 25 24 24 24 24 25 25 26 26 25 26 27 28 28 30 30 31 32 33 34 35
26 25 24 23 24 24 24 23 24 25 26 27 28 28 28 28 29 29 28 27 27 27 27 27 26 26 27 27 27 26 26 26 26 27 28 29 30 31 32 33 34 35 36 37
24 24 23 22 23 23 23 23 23 24 25 27 28 29 29 30 30 30 29 28 28 27 27 27 27 28 28 28 28 28 27 28 28 28 29 30 31 32 33 34 35 35 37 38
22 22 22 22 22 22 22 23 23 23 25 27 27 28 29 30 29 29 29 28 28 28 28 28 28 29 29 28 27 27 27 28 28 29 30 31 32 33 33 34 35 36 37 39
21 21 21 20 21 20 21 21 21 22 23 25 26 27 28 28 28 28 28 28 28 28 28 28 28 28 28 28 27 27 27 27 28 29 30 31 32 32 33 35 36 37 38 40
19 19 19 19 19 18 19 21 23 23 24 25 25 25 26 27 26 26 26 26 26 25 25 25 26 26 27 28 28 28 28 28 29 29 30 31 32 33 34 35 36 38 40 41
15 16 16 17 17 17 17 18 20 22 23 22 22 23 24 24 24 25 24 23 23 22 23 23 24 24 26 27 27 27 26 27 28 29 30 32 33 34 36 37 39 40 42 43
12 12 13 14 15 15 15 16 18 18 19 19 18 19 20 20 21 21 20 20 20 20 20 20 20 21 22 23 23 24 25 27 28 30 32 34 35 36 38 40 42 43 44 44
10 11 12 13 13 13 13 14 15 16 16 16 16 16 16 17 18 17 16 16 16 17 17 17 18 19 20 21 23 25 27 28 30 32 34 36 37 38 40 41 42 43 44 45
10 11 12 13 12 12 12 12 13 13 13 13 13 13 13 14 14 14 14 14 15 15 17 18 19 21 22 24 25 27 29 31 33 34 36 37 38 40 41 42 43 44 44 45
11 12 13 12 12 13 13 11 10 11 10 9 10 10 11 12 12 12 13 13 14 15 17 19 21 23 25 26 28 29 31 33 34 36 37 39 40 41 42 43 44 44 44 44
11 11 11 11 10 10 9 9 9 9 9 9 9 10 10 10 11 12 13 14 16 18 20 21 23 25 27 29 30 31 33 35 36 38 39 40 41 43 43 43 43 43 43 43
11 10 10 9 9 9 8 8 8 8 8 9 9 10 11 12 13 14 15 17 19 21 23 24 26 27 29 30 32 34 35 37 38 40 41 42 43 43 43 42 42 42 41 41
11 10 10 10 9 9 8 7 8 9 10 10 11 12 13 14 15 17 19 21 22 24 25 26 28 29 31 32 34 36 37 39 40 41 42 42 42 42 41 41 40 39 39 38
12 11 11 10 10 10 9 9 9 10 10 11 13 14 15 16 18 20 22 23 24 26 27 29 30 32 33 35 36 38 39 40 41 41 41 41 40 40 39 38 37 36 35 34
13 13 13 12 11 10 9 10 11 12 13 14 15 16 18 20 21 22 24 25 27 28 29 30 32 33 35 36 37 38 39 39 39 39 38 38 37 36 35 34 33 32 32 31
12 13 13 12 12 12 12 12 14 15 16 17 18 19 21 22 24 25 26 27 28 29 30 32 33 34 35 36 36 37 37 36 36 36 35 34 33 32 31 30 30 29 29 28
12 13 13 13 13 14 15 16 17 17 19 20 21 22 23 24 25 26 27 28 29 30 31 32 33 34 35 35 35 35 34 33 33 32 31 30 30 29 28 27 27 27 26 26
13 14 14 15 15 17 18 18 19 21 22 23 24 24 25 26 27 28 29 29 30 31 32 33 33 34 33 33 32 31 30 30 29 28 28 27 27 26 25 24 24 24 24 24
14 15 16 17 18 19 20 21 21 22 23 24 25 25 26 27 28 29 29 30 30 31 32 32 31 31 30 29 28 28 27 27 26 26 26 25 25 24 23 23 23 23 23 23
Wind_Direction
242 244 249 251 250 251 251 252 253 256 258 259 260 262 261 259 260 262 264 269 273 273 276 274 269 264 257 250 247 242 238 236 237 238 240 244 248 249 250 251 253 254 256 258
249 251 252 252 251 254 255 255 256 255 253 254 254 255 256 255 255 258 262 264 267 269 272 269 264 260 257 254 253 250 247 246 245 246 247 250 252 254 256 258 259 260 263 264
252 253 254 254 254 255 255 256 256 254 252 252 251 251 252 252 252 254 256 259 261 263 266 266 260 257 259 258 256 257 255 252 251 252 253 256 257 258 259 262 264 266 269 269
252 254 255 257 256 254 253 252 252 250 249 249 249 248 248 248 249 251 253 254 258 261 262 263 262 260 261 261 260 259 260 259 258 257 258 261 263 263 263 265 268 270 271 273
252 255 258 258 257 256 254 251 249 248 247 246 246 246 246 247 247 248 250 252 255 257 258 260 259 259 261 261 259 259 260 262 264 263 263 264 266 266 267 268 270 271 273 275
251 252 255 258 258 256 253 250 246 246 245 243 243 242 242 243 244 245 247 250 252 254 255 257 257 256 258 261 260 260 262 264 263 264 266 267 267 268 269 271 273 274 274 276
252 254 256 257 256 252 250 249 245 243 241 240 238 237 238 239 240 242 245 247 249 251 252 255 257 256 256 259 261 262 263 264 264 264 265 268 269 270 273 274 276 277 276 276
252 254 256 255 251 247 245 245 244 241 237 235 235 236 235 235 235 238 243 245 247 250 252 254 257 257 258 257 259 261 262 262 263 265 267 269 271 272 273 274 276 278 278 277
250 253 255 252 248 245 242 241 239 237 232 231 231 232 232 232 233 236 241 244 246 248 251 252 255 257 259 258 258 258 260 261 263 266 267 269 271 273 275 277 277 278 279 279
250 250 253 251 245 242 240 237 233 231 228 226 227 229 230 232 235 238 241 244 246 248 251 253 255 257 258 256 255 258 260 261 264 266 268 271 273 274 276 278 278 279 280 281
251 251 251 248 242 239 235 232 228 227 225 224 226 228 229 231 233 237 241 242 245 248 250 252 253 255 255 254 255 257 260 263 264 267 270 273 275 277 278 279 279 280 281 282
251 248 247 244 238 234 230 225 223 223 223 224 227 229 230 232 235 239 241 245 247 250 251 252 254 255 256 258 258 259 262 264 266 270 273 275 277 279 280 281 281 281 282 283
248 243 241 237 233 227 222 221 220 222 224 225 227 230 232 233 235 238 240 242 245 246 247 250 253 254 255 257 258 260 263 266 270 273 275 278 280 281 282 283 283 284 284 284
239 234 231 228 224 220 218 218 217 218 222 223 228 231 231 233 235 234 237 241 241 242 245 249 251 253 256 258 260 262 266 270 274 276 279 281 283 284 285 286 286 286 286 286
229 225 221 217 213 211 210 210 214 216 216 218 223 225 227 230 233 232 233 238 242 246 250 254 258 261 263 265 268 272 275 278 279 281 283 285 287 288 289 289 290 290 290 290
217 210 201 201 203 203 199 202 205 207 203 205 211 216 221 226 230 230 232 238 245 252 256 260 264 267 270 273 276 278 280 282 283 285 287 289 290 291 292 293 293 293 293 293
204 197 188 188 192 196 201 201 200 198 200 205 209 217 224 230 231 235 240 246 251 256 261 266 271 273 276 279 281 283 284 286 288 289 291 292 292 293 294 295 296 296 296 296
201 196 191 189 187 188 190 193 197 203 208 210 214 224 232 239 242 247 252 258 264 268 272 275 278 279 281 283 285 287 289 291 293 293 293 294 295 296 296 297 297 297 297 297
190 186 187 192 193 192 189 194 204 213 219 223 229 235 241 247 253 259 265 269 272 276 279 282 284 286 288 290 292 293 294 295 295 296 296 297 297 298 298 299 299 298 298 299
185 187 190 194 198 202 206 211 220 229 233 234 239 246 254 260 264 269 273 277 280 283 285 287 289 291 293 294 295 296 296 297 298 298 299 299 299 299 300 300 299 299 300 300
198 202 203 206 212 218 221 225 231 236 242 247 252 259 266 271 275 279 281 284 286 289 290 291 293 294 295 296 297 298 299 299 300 300 300 300 300 300 300 300 300 300 300 300
201 204 206 215 223 226 230 236 243 250 256 260 263 269 274 278 281 284 286 288 289 291 292 293 295 296 297 298 299 299 300 300 301 301 301 301 301 301 301 301 300 300 300 301
205 212 220 226 230 237 245 254 259 263 265 267 272 276 280 284 286 288 290 291 292 294 295 296 297 298 299 299 300 301 302 302 302 302 302 302 302 303 302 302 301 300 300 301
218 224 229 235 243 252 258 262 266 270 273 275 279 282 284 287 289 291 292 294 295 296 297 298 299 299 300 301 302 302 303 304 304 304 304 304 304 304 303 302 301 301 301 302
229 234 241 249 252 258 264 269 273 277 280 281 284 286 288 289 290 291 293 294 296 297 298 298 299 300 301 302 303 304 305 306 306 306 305 305 305 305 304 304 304 305 305 305
240 246 252 255 261 267 271 274 276 278 280 282 284 286 288 290 292 293 294 295 296 297 297 298 299 301 302 303 304 305 306 307 308 307 307 307 307 307 306 307 308 307 307 307
249 254 260 267 271 273 276 277 279 280 283 284 286 288 290 291 292 293 294 295 297 298 299 301 302 302 303 304 305 306 307 308 309 309 309 309 309 308 308 309 309 309 310 310
Height
5805 5807 5809 5810 5812 5814 5815 5817 5820 5822 5823 5824 5824 5824 5824 5825 5825 5826 5826 5827 5827 5827 5828 5828 5829 5829 5830 5830 5831 5832 5833 5835 5836 5837 5839 5840 5842 5843 5844 5845 5845 5846 5847 5848
5796 5798 5800 5802 5804 5806 5808 5809 5811 5813 5815 5816 5817 5818 5819 5820 5821 5822 5822 5823 5823 5824 5824 5825 5825 5826 5827 5828 5829 5830 5831 5832 5833 5834 5835 5837 5838 5839 5840 5841 5841 5841 5842 5842
5788 5790 5790 5793 5797 5798 5800 5801 5803 5804 5808 5809 5810 5811 5813 5814 5816 5817 5818 5818 5819 5820 5821 5821 5822 5823 5824 5825 5826 5827 5827 5828 5829 5830 5831 5832 5833 5834 5835 5835 5836 5836 5836 5835
5779 5781 5781 5787 5787 5788 5790 5792 5794 5796 5798 5800 5802 5804 5806 5808 5809 5811 5812 5813 5814 5815 5816 5817 5818 5819 5820 5821 5822 5823 5824 5824 5825 5826 5827 5827 5828 5828 5829 5829 5829 5829 5829 5829
5770 5771 5773 5776 5777 5778 5780 5782 5785 5787 5789 5791 5794 5796 5798 5801 5802 5804 5806 5808 5809 5810 5811 5812 5813 5814 5815 5816 5817 5818 5819 5820 5820 5821 5821 5822 5822 5822 5822 5822 5822 5822 5821 5821
5760 5762 5764 5768 5768 5768 5771 5772 5775 5777 5780 5783 5785 5788 5791 5793 5795 5798 5800 5801 5803 5804 5805 5807 5808 5809 5809 5810 5811 5812 5813 5814 5814 5815 5815 5815 5815 5815 5815 5815 5815 5814 5813 5812
5752 5753 5755 5758 5759 5761 5763 5765 5766 5768 5771 5774 5776 5780 5783 5785 5788 5790 5793 5795 5796 5798 5799 5800 5802 5803 5803 5804 5805 5806 5807 5807 5808 5808 5809 5809 5808 5808 5807 5807 5806 5805 5804 5803
5744 5745 5749 5748 5750 5752 5754 5755 5757 5759 5762 5765 5768 5771 5775 5778 5781 5783 5786 5788 5790 5791 5793 5794 5795 5796 5797 5798 5799 5799 5800 5800 5801 5801 5801 5801 5801 5800 5799 5799 5798 5796 5795 5794
5737 5739 5739 5740 5741 5743 5745 5747 5749 5751 5754 5757 5760 5764 5767 5770 5773 5776 5779 5781 5783 5784 5786 5787 5788 5789 5790 5791 5791 5792 5793 5793 5794 5794 5793 5793 5792 5792 5791 5790 5789 5787 5786 5784
5728 5730 5731 5732 5733 5735 5737 5740 5742 5744 5747 5750 5753 5757 5760 5763 5766 5769 5772 5773 5775 5777 5779 5780 5781 5782 5783 5783 5784 5785 5785 5786 5786 5786 5785 5784 5784 5783 5782 5781 5779 5777 5776 5774
5722 5723 5724 5725 5726 5728 5730 5733 5735 5738 5741 5744 5747 5750 5753 5756 5759 5762 5764 5766 5768 5770 5771 5773 5774 5775 5775 5775 5776 5777 5777 5777 5777 5777 5777 5776 5775 5774 5772 5771 5769 5767 5765 5763
5715 5716 5717 5719 5720 5722 5724 5727 5730 5733 5735 5738 5741 5744 5747 5750 5753 5755 5757 5759 5761 5762 5764 5765 5767 5767 5768 5769 5769 5769 5770 5770 5769 5769 5768 5767 5766 5764 5762 5761 5759 5757 5754 5752
5708 5709 5711 5712 5714 5716 5719 5722 5724 5727 5730 5733 5736 5739 5741 5744 5746 5749 5751 5753 5754 5755 5756 5758 5759 5760 5761 5761 5761 5761 5761 5761 5761 5760 5759 5758 5756 5754 5753 5751 5748 5746 5743 5740
5703 5704 5706 5708 5710 5713 5715 5718 5720 5722 5725 5728 5731 5733 5736 5738 5740 5742 5744 5746 5747 5748 5749 5751 5752 5752 5753 5753 5754 5753 5753 5753 5752 5751 5750 5748 5746 5744 5742 5739 5737 5734 5731 5727
5699 5701 5703 5705 5707 5709 5711 5713 5716 5718 5721 5723 5726 5729 5731 5733 5735 5736 5738 5740 5741 5742 5743 5745 5746 5746 5747 5747 5746 5746 5746 5745 5744 5742 5741 5739 5736 5734 5731 5727 5724 5720 5717 5714
5697 5698 5700 5702 5705 5707 5708 5711 5713 5715 5717 5720 5722 5724 5727 5729 5731 5732 5734 5735 5737 5738 5739 5739 5740 5740 5740 5740 5739 5739 5738 5736 5735 5733 5731 5728 5725 5722 5719 5715 5711 5707 5704 5700
5695 5696 5699 5701 5703 5705 5707 5709 5711 5713 5715 5717 5720 5722 5724 5725 5727 5728 5730 5731 5732 5733 5734 5734 5735 5735 5734 5733 5732 5731 5729 5727 5725 5723 5720 5717 5714 5710 5707 5703 5699 5694 5690 5686
5694 5696 5698 5700 5702 5704 5706 5708 5710 5712 5714 5716 5718 5719 5721 5722 5723 5725 5726 5727 5728 5728 5729 5729 5729 5728 5727 5726 5724 5722 5720 5717 5715 5712 5709 5705 5702 5698 5694 5690 5685 5681 5677 5673
5693 5695 5698 5700 5702 5704 5705 5708 5710 5711 5713 5715 5716 5718 5719 5719 5721 5721 5722 5723 5723 5723 5723 5722 5722 5720 5719 5717 5715 5712 5710 5707 5704 5701 5697 5694 5690 5686 5681 5677 5672 5668 5664 5659
5693 5695 5697 5699 5701 5703 5705 5707 5708 5710 5711 5713 5714 5715 5716 5716 5717 5717 5718 5718 5717 5717 5716 5715 5714 5712 5710 5708 5705 5703 5700 5696 5693 5689 5685 5681 5677 5673 5668 5664 5660 5655 5651 5647
5692 5694 5696 5698 5700 5702 5704 5705 5707 5708 5709 5710 5711 5711 5712 5712 5712 5712 5712 5712 5711 5710 5708 5707 5705 5703 5700 5698 5695 5692 5689 5685 5681 5677 5673 5669 5665 5661 5656 5652 5648 5644 5639 5635
5690 5693 5695 5697 5699 5700 5702 5703 5704 5705 5706 5707 5707 5707 5707 5707 5707 5706 5706 5705 5704 5702 5700 5698 5696 5693 5691 5688 5685 5681 5678 5674 5670 5665 5661 5657 5653 5649 5645 5641 5637 5633 5629 5625
5689 5691 5693 5695 5696 5698 5699 5700 5701 5702 5702 5702 5702 5702 5702 5701 5700 5700 5699 5697 5695 5694 5691 5689 5687 5684 5681 5678 5674 5670 5667 5663 5658 5654 5650 5646 5642 5638 5634 5630 5626 5623 5619 5615
5687 5689 5691 5692 5693 5695 5696 5696 5697 5697 5697 5697 5697 5696 5696 5695 5693 5692 5690 5689 5687 5685 5682 5680 5677 5674 5671 5668 5664 5660 5656 5652 5648 5644 5640 5636 5632 5628 5625 5621 5617 5614 5610 5606
5685 5687 5688 5689 5690 5691 5691 5691 5691 5691 5691 5690 5690 5689 5688 5687 5686 5684 5682 5680 5678 5676 5673 5671 5668 5664 5661 5657 5654 5650 5646 5642 5638 5635 5631 5627 5624 5620 5616 5613 5609 5606 5602 5599
5682 5683 5684 5685 5685 5686 5686 5686 5686 5685 5685 5684 5683 5682 5681 5679 5677 5676 5674 5671 5669 5667 5664 5661 5658 5655 5651 5648 5644 5641 5637 5634 5630 5626 5623 5620 5616 5612 5609 5605 5602 5598 5595 5591
5678 5679 5680 5680 5680 5680 5680 5680 5679 5679 5678 5677 5676 5674 5673 5671 5669 5667 5665 5663 5660 5658 5655 5652 5649 5646 5642 5639 5636 5633 5630 5626 5623 5619 5616 5613 5609 5606 5602 5599 5596 5592 5588 5585